Tracking 31028 objects as of 17-Jul-2025
HD Live streaming from Space Station
objects crossing your sky now

DELTA 1 DEB

Track DELTA 1 DEB now!
10-day predictions


NORAD ID: 7086
Int'l Code: 1973-086CE
Perigee: 1,498.8 km
Apogee: 1,521.0 km
Inclination: 102.1 °
Period: 116.0 minutes
Semi major axis: 7880 km
RCS: 0.0523 m2 (small)
Launch date: November 6, 1973
Source: United States (US)
Launch site: AIR FORCE WESTERN TEST RANGE (AFWTR)

Note: This is SATELLITE DEBRIS
Your satellite tracking list
Your tracking list is empty




NASA's NSSDC Master Catalog

Two Line Element Set (TLE):
1 07086U 73086CE  25197.87159843  .00000071  00000-0  85875-3 0  9998
2 07086 102.1000 166.2234 0014100 104.7673 312.2661 12.40910543339404
Source of the keplerian elements: AFSPC